Date,TemperatureHighF,TemperatureAvgF,TemperatureLowF,DewpointHighF,DewpointAvgF,DewpointLowF,HumidityHigh,HumidityAvg,HumidityLow,PressureMaxIn,PressureMinIn,WindSpeedMaxMPH,WindSpeedAvgMPH,GustSpeedMaxMPH,PrecipitationSumIn
2013-1-1,42,36,31,32,30,27,89,79,61,29.66,29.28,14,5,16,0.00
2013-1-2,39,36,34,30,28,25,75,69,61,29.63,29.35,9,4,13,0.00
2013-1-3,40,38,34,28,24,20,65,57,49,29.66,29.60,13,5,16,0.00
2013-1-4,34,29,24,25,21,17,84,72,60,29.91,29.66,6,1,8,0.00
2013-1-5,34,30,27,23,20,17,81,66,52,29.83,29.38,5,1,7,0.00
2013-1-6,35,30,24,24,20,17,79,65,51,29.46,29.11,12,3,13,0.00
2013-1-7,35,30,24,26,18,16,79,63,52,29.47,29.13,10,2,11,0.00
2013-1-8,25,19,11,16,12,8,88,75,67,30.09,29.47,3,0,5,0.00
2013-1-9,15,11,5,11,7,2,89,86,83,30.18,30.03,2,0,2,0.00
2013-1-10,21,16,10,17,13,7,89,87,79,30.24,30.03,2,0,2,0.00
2013-1-11,25,21,14,22,18,11,91,89,86,30.22,30.03,2,0,3,0.00
2013-1-12,41,30,21,36,27,19,92,89,78,30.21,29.92,11,2,11,0.00
2013-1-13,42,37,31,38,34,30,95,92,79,29.96,29.71,9,2,12,0.00
2013-1-14,41,38,34,38,32,21,94,80,55,30.00,29.55,13,4,16,0.00
2013-1-15,34,25,20,21,17,14,85,71,52,30.30,30.00,12,1,12,0.00
2013-1-16,24,21,19,18,16,14,89,82,70,30.27,29.75,4,0,7,0.00
2013-1-17,20,15,11,17,12,7,89,86,83,30.02,29.67,2,0,2,0.00
2013-1-18,15,6,-1,12,3,-5,88,86,83,30.30,30.02,0,0,1,0.00
2013-1-19,25,17,9,17,11,6,87,78,62,30.30,30.04,5,1,7,0.00
2013-1-20,27,23,14,21,16,12,89,76,62,30.06,29.93,5,1,7,0.00
2013-1-21,26,15,8,21,12,4,93,87,77,29.99,29.78,3,0,3,0.00
2013-1-22,32,25,22,25,21,19,91,86,69,29.80,29.50,2,0,2,0.00
2013-1-23,34,27,18,29,23,16,92,86,77,29.51,29.39,1,0,2,0.00
2013-1-24,33,24,15,27,19,12,92,84,66,29.57,29.45,2,0,3,0.00
2013-1-25,30,16,0,28,8,-8,92,72,58,29.70,29.41,6,1,10,0.00
2013-1-26,7,-7,-16,-4,-14,-22,79,69,48,29.97,29.71,2,0,4,0.00
2013-1-27,1,-13,-23,-10,-21,-29,79,67,46,30.23,29.97,7,0,10,0.00
2013-1-28,8,1,-7,-1,-13,-20,74,51,35,30.27,29.97,14,3,16,0.00
2013-1-29,13,8,5,7,0,-6,77,69,58,29.97,29.86,9,2,12,0.00
2013-1-30,25,18,13,22,14,7,88,84,75,29.95,29.71,4,0,4,0.00
2013-1-31,31,28,25,29,26,22,94,92,88,30.02,29.78,1,0,2,0.00
2013-2-1,31,24,17,29,22,14,94,92,90,30.07,30.02,0,0,0,0.00
2013-2-2,22,22,22,20,20,20,92,92,92,30.02,30.02,0,0,0,0.00
2013-2-8,24,24,24,22,22,22,92,92,92,30.02,30.02,0,0,0,0.00
2013-2-9,40,39,24,33,29,22,92,67,57,30.02,29.07,12,6,14,0.00
2013-2-10,40,35,31,33,29,26,91,79,69,29.57,29.05,10,2,16,0.00
2013-2-11,31,24,16,29,20,12,92,83,66,29.84,29.57,5,1,6,0.00
2013-2-12,26,22,17,21,18,14,88,83,75,29.85,29.79,3,0,3,0.00
2013-2-13,36,27,20,24,20,17,90,74,56,29.90,29.72,9,1,10,0.00
2013-2-14,37,33,29,28,21,16,90,62,49,29.72,29.28,13,4,14,0.00
2013-2-15,30,27,22,28,24,16,92,86,72,29.99,29.57,3,0,5,0.00
2013-2-16,28,20,8,18,14,5,89,80,65,30.10,29.86,5,1,7,0.00
2013-2-17,26,21,17,22,17,10,88,82,74,29.86,29.64,8,2,8,0.00
2013-2-18,21,12,-1,10,5,-5,85,73,59,29.97,29.84,7,1,8,0.00
2013-2-19,18,6,-5,9,0,-9,85,75,57,29.94,29.39,3,0,6,0.00
2013-2-20,26,19,14,17,12,7,86,74,58,29.39,29.14,4,0,4,0.00
2013-2-21,27,20,14,20,14,10,86,77,59,29.33,29.18,4,0,4,0.00
2013-2-22,30,22,18,21,17,14,91,81,67,29.50,29.26,7,1,9,0.00
2013-2-23,29,22,13,20,14,10,87,73,50,29.48,29.21,7,1,7,0.00
2013-2-24,33,24,16,24,18,12,85,79,64,29.71,29.42,4,1,4,0.00
2013-2-25,41,25,10,23,14,6,89,64,37,29.74,29.64,11,2,12,0.00
2013-2-26,42,34,31,16,11,9,48,40,29,29.65,29.39,11,5,15,0.00
2013-2-27,40,32,27,23,15,10,61,49,36,29.40,29.27,13,5,15,0.00
2013-2-28,38,30,21,24,18,14,83,61,44,29.45,29.36,7,1,10,0.00
2013-3-1,31,24,18,27,20,14,91,84,74,29.99,29.45,2,0,4,0.00
2013-3-2,33,23,15,25,19,12,92,85,66,30.17,30.00,5,0,5,0.00
2013-3-3,35,21,9,20,13,6,89,73,43,30.52,30.17,2,0,3,0.00
2013-3-4,37,26,16,21,16,11,83,68,44,30.54,30.37,2,0,3,0.00
2013-3-5,35,25,15,21,16,10,84,69,48,30.37,30.05,2,0,4,0.00
2013-3-6,32,24,17,22,17,13,87,75,55,30.05,29.91,3,0,3,0.00
2013-3-7,42,32,20,27,21,16,86,62,44,29.92,29.60,14,3,16,0.00
2013-3-8,46,38,34,30,28,26,78,66,52,29.83,29.62,14,3,16,0.00
2013-3-9,41,37,32,30,25,23,88,63,50,30.16,29.83,6,1,10,0.00
2013-3-10,34,30,27,30,27,25,92,88,81,30.28,30.16,3,0,4,0.00
2013-3-11,37,29,20,28,21,11,93,73,39,30.38,30.28,18,3,21,0.00
2013-3-12,33,29,26,12,3,-1,42,33,27,30.30,30.19,22,13,28,0.00
2013-3-26,16,10,0,4,0,-5,81,65,53,30.26,30.13,2,0,3,0.00
2013-3-27,20,6,-13,7,-2,-18,83,69,50,30.35,30.26,3,0,4,0.00
2013-3-28,33,20,10,22,12,3,84,70,51,30.29,30.02,4,0,6,0.00
2013-3-29,39,29,20,30,23,17,88,79,67,30.03,29.94,4,0,4,0.00
2013-3-30,40,31,24,30,26,21,91,81,57,30.31,30.03,4,1,5,0.00
2013-3-31,44,33,24,32,27,22,93,78,56,30.33,30.17,4,1,6,0.00
2013-4-1,38,30,20,26,22,17,91,75,53,30.17,30.02,7,1,8,0.00
2013-4-2,40,28,16,26,18,12,87,68,43,30.24,30.07,3,1,4,0.00
2013-4-3,43,34,26,22,20,17,79,58,36,30.32,30.24,4,1,5,0.00
2013-4-4,39,31,20,20,9,0,80,44,20,30.27,29.83,15,5,16,0.00
2013-4-5,34,29,22,14,4,-4,47,34,28,29.83,29.56,12,3,12,0.00
2013-4-6,29,22,16,22,16,6,89,77,41,29.59,29.53,4,1,7,0.00
2013-4-7,27,21,8,22,15,4,89,77,51,29.86,29.59,4,1,5,0.00
2013-4-8,17,10,-2,13,6,-7,88,81,66,29.86,29.35,4,0,4,0.00
2013-4-9,28,19,12,13,8,-1,88,65,41,29.52,29.17,6,1,8,0.00
2013-4-10,26,15,0,12,2,-7,82,58,46,30.03,29.52,8,1,8,0.00
2013-4-11,23,13,-1,8,3,-6,84,66,42,30.17,30.03,4,1,5,0.00
2013-4-12,35,16,-4,11,1,-10,81,54,26,30.19,30.10,5,1,6,0.00
2013-4-13,37,22,6,16,4,-4,64,46,29,30.48,30.18,6,1,7,0.00
2013-4-14,38,25,6,18,7,0,73,48,28,30.61,30.48,6,1,7,0.00
2013-4-15,39,27,13,12,8,4,69,46,29,30.52,30.36,10,2,10,0.00
2013-4-16,39,28,14,19,10,6,71,48,31,30.36,30.15,8,2,10,0.00
2013-4-17,34,25,11,18,9,0,75,51,38,30.23,30.16,5,1,5,0.00
2013-4-18,42,28,11,22,14,6,82,58,35,30.26,30.17,8,2,8,0.00
2013-4-19,45,33,17,22,14,9,74,47,29,30.40,30.21,8,2,9,0.00
2013-4-20,43,32,17,26,14,10,76,50,29,30.50,30.40,4,1,4,0.00
2013-4-21,45,34,20,28,19,14,79,57,32,30.48,30.41,8,1,8,0.00
2013-4-22,48,37,22,26,23,17,88,60,37,30.61,30.47,5,1,5,0.00
2013-4-23,40,35,31,36,29,22,91,79,62,30.56,30.41,3,0,3,0.00
2013-4-24,42,36,32,34,32,30,94,86,72,30.41,29.89,10,2,10,0.00
2013-4-25,45,37,29,31,13,2,87,42,24,29.91,29.79,24,6,26,0.00
2013-4-26,42,34,28,21,10,0,69,40,24,29.83,29.54,20,5,27,0.00
2013-4-27,41,35,26,20,11,8,66,37,27,29.96,29.56,15,5,16,0.00
2013-4-28,42,35,28,15,6,-2,47,30,18,30.22,29.96,12,3,13,0.00
2013-4-29,42,32,22,22,16,10,69,51,35,30.26,30.17,4,1,6,0.00
2013-4-30,41,36,28,31,24,19,86,61,52,30.17,29.89,6,2,8,0.00
2013-5-1,48,37,23,27,22,17,90,59,33,29.89,29.59,8,2,10,0.00
2013-5-2,42,36,31,38,31,24,92,83,64,29.93,29.69,3,0,4,0.00
2013-5-3,42,38,35,36,34,31,92,85,73,30.00,29.85,4,1,5,0.00
2013-5-4,36,34,31,33,31,29,93,91,87,30.00,29.81,7,1,10,0.00
2013-5-5,47,38,29,34,28,19,94,70,35,30.19,30.01,5,1,6,0.00
2013-5-6,48,39,28,30,25,21,86,59,38,30.33,30.19,6,2,8,0.00
2013-5-7,49,39,28,31,27,23,86,63,43,30.35,30.30,5,1,7,0.00
2013-5-8,55,43,28,34,28,24,87,60,32,30.34,30.27,6,2,8,0.00
2013-5-9,53,42,28,36,29,22,84,62,43,30.37,30.28,8,1,8,0.00
2013-5-10,60,47,28,44,32,25,89,59,32,30.30,30.00,4,1,6,0.00
2013-5-11,58,48,37,41,35,30,79,62,44,30.00,29.63,6,2,9,0.00
2013-5-12,51,46,40,44,40,36,92,82,72,29.64,29.53,3,0,4,0.00
2013-5-13,53,45,39,41,33,17,94,67,34,29.53,29.45,10,1,10,0.00
2013-5-14,43,37,28,33,23,15,83,57,40,29.69,29.52,8,2,8,0.00
2013-5-15,50,41,30,32,28,21,90,62,34,29.81,29.69,8,2,9,0.00
2013-5-16,43,40,36,37,31,25,88,71,53,29.80,29.51,5,1,6,0.00
2013-5-17,39,35,32,36,32,30,93,90,88,29.59,29.45,5,1,5,0.00
2013-5-18,38,32,25,30,26,20,93,80,57,30.22,29.59,7,1,7,0.00
2013-5-19,46,37,24,28,20,14,75,51,33,30.66,30.22,6,2,7,0.00
2013-5-20,53,41,24,31,25,20,88,57,30,30.71,30.59,9,2,9,0.00
2013-5-21,54,43,27,36,28,22,87,59,36,30.63,30.34,8,2,12,0.00
2013-5-22,57,45,31,40,33,27,87,64,37,30.34,30.16,8,2,11,0.00
2013-5-23,58,49,39,44,40,36,93,74,55,30.22,30.15,7,2,8,0.00
2013-5-24,67,53,37,44,39,34,90,62,39,30.15,30.02,9,2,10,0.00
2013-5-25,68,55,35,41,36,25,90,53,26,30.06,29.93,5,1,6,0.00
2013-5-26,63,51,35,45,38,29,87,62,42,30.00,29.91,9,2,9,0.00
2013-5-27,55,48,40,44,40,36,88,75,63,29.97,29.94,3,1,3,0.00
2013-5-28,57,57,57,45,45,45,64,64,64,29.94,29.94,2,2,2,0.00
2013-5-29,77,66,42,51,44,37,84,47,33,29.94,29.71,10,3,11,0.00
2013-5-30,69,58,42,46,43,38,88,60,42,30.07,29.81,9,2,11,0.00
2013-5-31,61,53,39,47,43,36,91,71,55,30.22,30.07,10,2,13,0.00
2013-6-1,56,50,45,46,42,40,83,75,61,30.27,30.23,6,2,8,0.00
2013-6-2,54,48,44,46,43,41,92,84,69,30.30,30.15,6,1,6,0.00
2013-6-3,58,51,41,45,41,38,92,72,56,30.14,29.81,6,1,7,0.00
2013-6-4,61,52,44,44,39,34,85,63,40,29.89,29.74,11,2,11,0.00
2013-6-5,61,52,34,42,37,30,88,58,36,30.02,29.89,8,2,9,0.00
2013-6-6,70,54,35,44,37,30,87,56,29,30.02,29.73,8,2,10,0.00
2013-6-7,74,58,40,47,41,36,88,57,31,30.00,29.74,9,2,11,0.00
2013-6-8,72,58,41,54,43,37,88,61,39,30.17,30.00,8,2,9,0.00
2013-6-9,74,61,43,48,45,40,92,60,37,30.25,30.17,8,2,11,0.00
2013-6-10,73,62,46,48,44,40,85,55,35,30.30,30.17,9,2,9,0.00
2013-6-11,74,61,44,52,46,40,90,59,35,30.19,30.02,6,2,10,0.00
2013-6-12,75,63,45,50,45,40,87,56,30,30.07,29.98,8,2,8,0.00
2013-6-13,68,60,46,52,44,40,79,58,42,30.24,30.02,9,2,13,0.00
2013-6-14,70,59,41,49,44,38,90,61,39,30.31,30.24,8,2,10,0.00
2013-6-15,72,61,44,52,48,40,90,64,44,30.39,30.28,10,2,11,0.00
2013-6-16,78,64,46,59,51,42,90,64,46,30.31,30.15,7,2,9,0.00
2013-6-17,78,65,51,57,51,46,88,63,43,30.19,29.93,5,1,9,0.00
2013-6-18,83,70,51,52,45,36,86,46,19,29.96,29.82,16,3,16,0.00
2013-6-19,74,65,53,50,45,40,84,50,31,30.04,29.96,8,2,8,0.00
2013-6-20,71,60,46,53,48,42,87,65,47,30.10,30.01,9,2,9,0.00
2013-6-21,58,53,49,46,44,41,84,72,58,30.17,30.10,8,2,8,0.00
2013-6-22,70,58,44,49,45,39,88,64,32,30.13,29.84,6,1,8,0.00
2013-6-23,69,59,46,50,46,41,83,63,45,29.84,29.69,5,1,7,0.00
2013-6-24,71,60,50,56,49,43,81,67,54,29.75,29.66,8,2,10,0.00
2013-6-25,73,62,46,56,49,43,89,65,46,29.69,29.65,9,2,9,0.00
2013-6-26,80,67,51,57,52,47,89,62,38,29.94,29.68,10,2,10,0.00
2013-6-27,69,63,55,57,53,49,83,70,58,30.15,29.93,8,2,9,0.00
2013-6-28,61,56,53,53,50,48,88,81,76,30.25,30.14,5,1,5,0.00
2013-6-29,64,57,52,53,50,48,88,78,61,30.21,30.06,4,1,5,0.00
2013-6-30,54,54,54,50,50,50,87,86,86,29.90,29.89,0,0,0,0.00
2013-7-1,57,53,49,51,49,46,92,87,79,29.89,29.65,1,0,1,0.00
2013-7-2,59,55,46,50,47,43,91,73,63,29.95,29.66,8,1,8,0.00
2013-7-3,62,54,47,49,46,43,91,76,52,30.08,29.95,3,0,4,0.00
2013-7-4,55,51,48,48,47,44,91,84,78,30.12,30.05,4,0,5,0.00
2013-7-5,62,54,48,50,47,45,91,79,60,30.13,30.07,5,1,6,0.00
2013-7-6,62,54,48,52,47,44,89,77,58,30.10,29.81,5,0,5,0.00
2013-7-7,66,54,46,53,48,44,94,79,52,29.81,29.63,7,1,11,0.00
2013-7-8,59,52,48,50,46,44,91,80,62,29.89,29.73,6,1,6,0.00
2013-7-9,65,57,49,51,48,46,91,73,52,30.09,29.89,8,2,10,0.00
2013-7-10,69,60,51,53,50,46,91,71,53,30.11,29.99,6,1,8,0.00
2013-7-11,76,65,54,57,52,47,86,65,38,30.00,29.94,8,2,8,0.00
2013-7-12,77,63,48,56,51,44,89,67,44,30.02,29.94,7,2,8,0.00
2013-7-13,73,64,56,55,52,48,84,66,47,30.23,30.02,10,2,10,0.00
2013-7-14,67,60,48,54,51,45,90,73,59,30.37,30.24,9,2,10,0.00
2013-7-15,63,56,48,53,50,44,90,79,69,30.41,30.30,6,1,6,0.00
2013-7-16,68,60,52,56,52,49,92,76,58,30.31,30.19,6,1,8,0.00
2013-7-17,70,63,56,58,54,52,88,75,61,30.20,30.12,5,1,7,0.00
2013-7-18,72,64,55,60,56,52,91,75,59,30.22,30.14,5,1,5,0.00
2013-7-19,71,65,59,58,54,51,85,67,52,30.24,30.16,8,2,11,0.00
2013-7-20,69,62,55,56,52,49,90,72,53,30.18,30.09,8,2,11,0.00
2013-7-21,76,63,45,54,46,41,91,58,30,30.11,29.97,7,2,8,0.00
2013-7-22,77,67,54,56,49,42,74,53,37,30.13,30.03,9,2,10,0.00
2013-7-23,76,63,50,59,51,46,89,66,39,30.17,30.07,8,2,9,0.00
2013-7-24,78,65,49,59,52,45,90,66,42,30.10,29.97,6,2,8,0.00
2013-7-25,75,65,57,61,56,51,89,72,53,30.12,29.99,6,2,9,0.00
2013-7-26,71,62,57,60,56,54,91,81,66,30.35,30.12,9,2,9,0.00
2013-7-27,71,63,56,60,55,53,90,78,62,30.41,30.33,6,1,7,0.00
2013-7-28,74,65,57,62,56,52,85,74,61,30.35,30.20,5,1,8,0.00
2013-7-29,74,64,53,61,56,50,91,74,59,30.25,30.18,7,1,7,0.00
2013-7-30,74,64,55,60,56,51,90,75,58,30.27,30.20,8,2,8,0.00
2013-7-31,73,63,53,59,54,50,92,75,58,30.27,30.16,8,2,8,0.00
2013-8-1,68,60,49,57,53,46,92,78,64,30.20,30.01,6,1,6,0.00
2013-8-2,72,62,50,56,52,47,93,71,47,30.05,29.84,7,1,7,0.00
2013-8-3,69,62,55,52,49,46,85,63,44,29.94,29.81,8,2,8,0.00
2013-8-4,68,60,53,53,50,48,84,70,50,30.02,29.94,4,1,5,0.00
2013-8-5,69,60,52,54,50,47,86,69,50,30.03,29.99,5,1,6,0.00
2013-8-6,69,60,50,55,48,44,86,67,47,30.01,29.95,5,1,5,0.00
2013-8-7,61,56,51,54,51,47,91,83,63,29.95,29.80,5,1,6,0.00
2013-8-8,66,57,50,55,50,46,93,79,61,29.88,29.77,11,1,11,0.00
2013-8-9,60,53,48,53,49,46,93,86,72,29.88,29.76,5,1,6,0.00
2013-8-10,61,54,48,54,50,46,94,88,75,30.04,29.80,4,0,4,0.00
2013-8-11,58,54,50,55,52,48,95,92,89,30.07,30.02,4,0,4,0.00
2013-8-12,66,59,54,60,56,52,95,89,78,30.09,30.04,5,1,6,0.00
2013-8-13,68,59,53,59,54,50,94,83,63,30.07,29.99,9,1,10,0.00
2013-8-14,61,56,53,52,50,49,89,80,67,30.08,29.94,5,1,6,0.00
2013-8-15,64,57,51,52,50,48,92,77,60,29.95,29.80,3,1,4,0.00
2013-8-16,55,49,45,51,46,43,94,90,85,29.81,29.77,1,0,1,0.00
2013-8-18,58,55,45,55,52,43,93,90,89,29.78,29.65,3,1,4,0.00
2013-8-19,54,52,50,52,49,46,94,90,82,29.81,29.69,3,1,4,0.00
2013-8-20,58,52,49,53,50,47,95,91,81,29.89,29.80,3,0,5,0.00
2013-8-21,54,51,48,53,49,46,95,93,91,29.91,29.87,2,0,3,0.00
2013-8-24,60,50,42,51,46,40,95,87,72,29.69,29.64,4,1,4,0.00
2013-9-18,51,50,49,43,43,42,78,76,73,29.66,29.64,1,0,2,0.00
2013-9-19,49,44,38,34,30,28,76,58,46,29.55,29.44,6,2,8,0.00
2013-9-20,38,34,29,28,26,23,78,73,66,29.45,29.42,4,1,6,0.00
2013-9-21,46,45,44,37,35,33,76,69,63,29.01,28.98,4,2,4,0.00
2013-9-22,44,40,37,38,28,24,77,63,53,29.31,28.97,7,2,7,0.00
2013-9-24,28,28,28,26,26,26,92,92,92,29.97,29.96,0,0,0,0.00
2013-9-29,49,48,47,37,35,33,64,60,55,29.28,29.27,4,2,4,0.00